WXM80 ListenWXM80 Stop

You find our weather info also at:

UK Metoffice

WeatherCloud

Weather Underground

Northeastern Weather Network

AWEKAS

Citizen Weather Observer Program (CWOP)

HAMweather, WeatherForYou, PWS Weather


Weather Underground History page Text

Daily Summary for October 22, 2017 Units:  Metric    English   Both
« Previous Day
Next Day »
Daily Weekly Monthly Yearly Custom
  High: Low: Average:
Temperature: 24.8 °C 9.8 °C 16.3 °C
Dew Point: 17.6 °C 8.4 °C 12 °C
Humidity: 98 % 43 % 78 %
Wind Speed: 6.9 km/h 0 km/h 0.6 km/h
Wind Gust: 11.1 km/h - -
Wind:- - SE
Pressure: 1029.3 hPa 1027 hPa -
Precipitation: 0 mm    
Historical Graphs
 
 
Tabular Data for October 22, 2017
Time Temperature Dew Point Pressure Wind Wind Speed Wind Gust Humidity Rainfall Rate (Hourly)
00:03 16.1 °C 11.5 °C 1027 hPa WSW 3.4 km/h 5.6 km/h 74 % 0 mm
00:06 16.1 °C 11.4 °C 1027 hPa WSW 3.4 km/h 5.6 km/h 74 % 0 mm
00:11 16 °C 11.4 °C 1027 hPa WSW 1.4 km/h 5.6 km/h 74 % 0 mm
00:16 15.9 °C 11.3 °C 1027 hPa WSW 0.5 km/h 1.9 km/h 74 % 0 mm
00:21 15.9 °C 11.3 °C 1027 hPa Calm   5.6 km/h 74 % 0 mm
00:26 15.9 °C 11.3 °C 1027 hPa WSW 2.4 km/h 5.6 km/h 74 % 0 mm
00:31 15.8 °C 11.2 °C 1027 hPa Calm   3.7 km/h 74 % 0 mm
00:36 15.8 °C 11 °C 1027.3 hPa WSW 0.6 km/h 1.9 km/h 73 % 0 mm
00:41 15.8 °C 10.9 °C 1027 hPa WSW 0.6 km/h 5.6 km/h 73 % 0 mm
00:47 15.7 °C 10.9 °C 1027.3 hPa WSW 1.3 km/h 5.6 km/h 73 % 0 mm
00:51 15.7 °C 10.8 °C 1027 hPa SW 0.2 km/h 5.6 km/h 73 % 0 mm
00:57 15.6 °C 11 °C 1027 hPa West 2.9 km/h 5.6 km/h 74 % 0 mm
01:02 15.6 °C 10.7 °C 1027 hPa WSW 3.9 km/h 7.4 km/h 73 % 0 mm
01:07 15.5 °C 10.7 °C 1027 hPa Calm     73 % 0 mm
01:12 15.4 °C 10.8 °C 1027 hPa Calm   1.9 km/h 74 % 0 mm
01:17 15.4 °C 10.8 °C 1027 hPa Calm     74 % 0 mm
01:22 15.3 °C 10.9 °C 1028 hPa Calm     75 % 0 mm
01:27 15.2 °C 10.8 °C 1027 hPa Calm     75 % 0 mm
01:32 15.1 °C 10.7 °C 1027 hPa Calm   1.9 km/h 75 % 0 mm
01:37 14.9 °C 10.6 °C 1027 hPa Calm     75 % 0 mm
01:42 14.8 °C 10.6 °C 1027.3 hPa Calm     76 % 0 mm
01:44 14.7 °C 10.6 °C 1027.3 hPa Calm     76 % 0 mm
01:49 14.6 °C 10.4 °C 1027 hPa Calm     76 % 0 mm
01:54 14.4 °C 10.4 °C 1027 hPa Calm     77 % 0 mm
01:59 14.2 °C 10.2 °C 1027 hPa Calm     77 % 0 mm
02:04 14 °C 10.1 °C 1027 hPa Calm     77 % 0 mm
02:09 13.8 °C 10.1 °C 1027 hPa WSW 0.3 km/h 1.9 km/h 78 % 0 mm
02:14 13.7 °C 9.9 °C 1027 hPa Calm     78 % 0 mm
02:19 13.6 °C 10 °C 1027 hPa Calm     79 % 0 mm
02:24 13.4 °C 9.9 °C 1027.3 hPa Calm     79 % 0 mm
02:29 13.3 °C 9.8 °C 1027 hPa Calm   1.9 km/h 79 % 0 mm
02:35 13.2 °C 9.8 °C 1027 hPa WSW 0.2 km/h 1.9 km/h 80 % 0 mm
02:40 13.1 °C 9.7 °C 1027 hPa Calm     80 % 0 mm
02:45 12.9 °C 9.8 °C 1027 hPa Calm   1.9 km/h 81 % 0 mm
02:50 12.8 °C 9.7 °C 1027 hPa Calm     81 % 0 mm
02:53 12.8 °C 9.8 °C 1027 hPa Calm     82 % 0 mm
02:55 12.7 °C 9.7 °C 1027 hPa Calm     82 % 0 mm
03:00 12.6 °C 9.6 °C 1027 hPa Calm     82 % 0 mm
03:05 12.6 °C 9.6 °C 1027 hPa WSW 0.2 km/h 1.9 km/h 82 % 0 mm
03:10 12.4 °C 9.6 °C 1027 hPa WSW 0.8 km/h 1.9 km/h 83 % 0 mm
03:15 12.4 °C 9.6 °C 1027 hPa WSW 0.5 km/h 1.9 km/h 83 % 0 mm
03:20 12.3 °C 9.5 °C 1027.3 hPa Calm     83 % 0 mm
03:25 12.2 °C 9.4 °C 1027.3 hPa Calm     83 % 0 mm
03:30 12.1 °C 9.3 °C 1027.3 hPa Calm     83 % 0 mm
03:36 12.1 °C 9.4 °C 1027.3 hPa Calm     84 % 0 mm
03:41 11.9 °C 9.3 °C 1027.3 hPa Calm     84 % 0 mm
03:46 11.9 °C 9.3 °C 1027.3 hPa Calm     84 % 0 mm
03:51 11.8 °C 9.2 °C 1027.3 hPa Calm   1.6 km/h 84 % 0 mm
03:55 11.7 °C 9.2 °C 1027.3 hPa WSW 0.5 km/h 1.9 km/h 85 % 0 mm
04:00 11.6 °C 9.2 °C 1027.3 hPa WSW 0.8 km/h 1.9 km/h 85 % 0 mm
04:06 11.6 °C 9.3 °C 1027.3 hPa Calm   1.6 km/h 86 % 0 mm
04:10 11.4 °C 9.2 °C 1027.3 hPa Calm     86 % 0 mm
04:15 11.4 °C 9.1 °C 1027.3 hPa Calm   1.9 km/h 86 % 0 mm
04:21 11.3 °C 9.1 °C 1027.3 hPa WSW 0.6 km/h 1.6 km/h 86 % 0 mm
04:25 11.3 °C 9.2 °C 1027.3 hPa Calm     87 % 0 mm
04:31 11.2 °C 8.9 °C 1027.3 hPa Calm     86 % 0 mm
04:36 11.2 °C 9.1 °C 1027.3 hPa Calm     87 % 0 mm
04:41 11.1 °C 9.2 °C 1027.3 hPa Calm     88 % 0 mm
04:46 11.1 °C 9.2 °C 1027.3 hPa Calm   1.6 km/h 88 % 0 mm
04:51 11.1 °C 9.2 °C 1027.3 hPa Calm   1.6 km/h 88 % 0 mm
04:56 11 °C 9.3 °C 1027.7 hPa Calm   1.6 km/h 89 % 0 mm
05:01 10.9 °C 9.2 °C 1027.7 hPa Calm     89 % 0 mm
05:06 10.9 °C 9 °C 1027.7 hPa Calm     88 % 0 mm
05:11 10.8 °C 8.9 °C 1027.7 hPa Calm   1.9 km/h 88 % 0 mm
05:16 10.8 °C 9.1 °C 1028 hPa Calm   1.9 km/h 89 % 0 mm
05:21 10.8 °C 9.1 °C 1027.7 hPa Calm     89 % 0 mm
05:26 10.7 °C 9 °C 1027.7 hPa Calm     89 % 0 mm
05:31 10.7 °C 9 °C 1027.7 hPa Calm     89 % 0 mm
05:36 10.7 °C 9.1 °C 1028 hPa Calm   1.9 km/h 90 % 0 mm
05:41 10.7 °C 9.1 °C 1028 hPa Calm     90 % 0 mm
05:46 10.6 °C 9.1 °C 1027.7 hPa Calm     90 % 0 mm
05:51 10.6 °C 9 °C 1027.7 hPa WSW 0.3 km/h   90 % 0 mm
05:56 10.6 °C 9 °C 1027.7 hPa Calm     90 % 0 mm
06:01 10.5 °C 8.8 °C 1028 hPa WSW 0.2 km/h 1.9 km/h 89 % 0 mm
06:07 10.4 °C 8.9 °C 1028 hPa Calm     90 % 0 mm
06:12 10.4 °C 8.8 °C 1028 hPa Calm     90 % 0 mm
06:17 10.4 °C 8.8 °C 1028 hPa Calm     90 % 0 mm
06:22 10.3 °C 8.8 °C 1028 hPa WSW 0.3 km/h 1.9 km/h 90 % 0 mm
06:27 10.3 °C 8.7 °C 1028 hPa WSW 0.2 km/h 1.9 km/h 90 % 0 mm
06:37 10.2 °C 8.8 °C 1028 hPa Calm     91 % 0 mm
06:42 10.2 °C 8.8 °C 1028 hPa Calm     91 % 0 mm
06:47 10.2 °C 8.6 °C 1028 hPa WSW 0.3 km/h 1.6 km/h 90 % 0 mm
06:52 10.1 °C 8.6 °C 1028 hPa Calm   1.9 km/h 90 % 0 mm
06:57 10.1 °C 8.7 °C 1028 hPa Calm   1.9 km/h 91 % 0 mm
07:02 10 °C 8.6 °C 1028 hPa WSW 0.3 km/h 1.9 km/h 91 % 0 mm
07:07 10 °C 8.6 °C 1028 hPa Calm     91 % 0 mm
07:12 9.9 °C 8.6 °C 1028 hPa WSW 0.2 km/h 1.9 km/h 91 % 0 mm
07:17 9.9 °C 8.6 °C 1028.3 hPa Calm     91 % 0 mm
07:22 9.9 °C 8.5 °C 1028.3 hPa Calm     91 % 0 mm
07:27 9.9 °C 8.5 °C 1028 hPa Calm     91 % 0 mm
07:32 9.8 °C 8.4 °C 1028.3 hPa Calm   1.6 km/h 91 % 0 mm
07:37 9.8 °C 8.6 °C 1028.3 hPa Calm     92 % 0 mm
07:42 9.9 °C 8.7 °C 1028.3 hPa Calm     92 % 0 mm
07:47 9.9 °C 8.9 °C 1028.7 hPa WSW 0.3 km/h 1.6 km/h 93 % 0 mm
07:52 9.9 °C 8.9 °C 1028.7 hPa Calm     93 % 0 mm
07:57 10.1 °C 9 °C 1028.7 hPa Calm     93 % 0 mm
08:02 10.1 °C 9.1 °C 1028.7 hPa Calm     94 % 0 mm
08:03 10.1 °C 9.2 °C 1028.7 hPa Calm     94 % 0 mm
08:08 10.2 °C 9.2 °C 1029 hPa Calm     94 % 0 mm
08:14 10.3 °C 9.3 °C 1029 hPa Calm     94 % 0 mm
08:19 10.4 °C 9.4 °C 1029 hPa Calm     94 % 0 mm
08:24 10.5 °C 9.7 °C 1029 hPa Calm     95 % 0 mm
08:29 10.6 °C 9.8 °C 1029 hPa Calm     95 % 0 mm
08:34 10.8 °C 10 °C 1029 hPa Calm     95 % 0 mm
08:39 11 °C 10.4 °C 1029.3 hPa Calm     96 % 0 mm
08:44 11.2 °C 10.6 °C 1029.3 hPa Calm     96 % 0 mm
08:49 11.4 °C 10.8 °C 1029 hPa Calm     96 % 0 mm
08:54 11.7 °C 11.1 °C 1029 hPa Calm     96 % 0 mm
09:04 12.3 °C 11.9 °C 1029.3 hPa Calm     97 % 0 mm
09:09 12.6 °C 12.2 °C 1029.3 hPa Calm     97 % 0 mm
09:14 12.9 °C 12.5 °C 1029.3 hPa Calm     97 % 0 mm
09:19 13.3 °C 12.9 °C 1029.3 hPa NE 1.9 km/h 3.7 km/h 97 % 0 mm
09:24 13.7 °C 13.3 °C 1029.3 hPa NE 0.5 km/h 1.9 km/h 97 % 0 mm
09:29 14.1 °C 13.7 °C 1029.3 hPa Calm   1.9 km/h 98 % 0 mm
09:34 14.3 °C 14 °C 1029.3 hPa NE 0.6 km/h 3.2 km/h 98 % 0 mm
09:39 14.6 °C 14.3 °C 1029.3 hPa NE 1.6 km/h 3.7 km/h 98 % 0 mm
09:44 14.8 °C 14.5 °C 1029.3 hPa Calm   1.9 km/h 98 % 0 mm
09:49 15.1 °C 14.7 °C 1029.3 hPa Calm   1.9 km/h 98 % 0 mm
09:54 15.2 °C 14.7 °C 1029.3 hPa Calm     97 % 0 mm
09:55 15.3 °C 14.8 °C 1029.3 hPa Calm     97 % 0 mm
10:00 15.6 °C 15.2 °C 1029.3 hPa Calm     98 % 0 mm
10:05 15.9 °C 15.6 °C 1029.3 hPa Calm     98 % 0 mm
10:10 16.2 °C 15.8 °C 1029.3 hPa Calm     98 % 0 mm
10:15 16.4 °C 16.1 °C 1029 hPa ENE 0.5 km/h 3.7 km/h 98 % 0 mm
10:20 16.7 °C 16.2 °C 1029.3 hPa NNE 0.8 km/h 4.8 km/h 97 % 0 mm
10:25 16.8 °C 16.3 °C 1029.3 hPa NNE 1.4 km/h 3.7 km/h 97 % 0 mm
10:26 16.9 °C 16.4 °C 1029.3 hPa NNE 1.4 km/h 3.7 km/h 97 % 0 mm
10:31 17.1 °C 16.4 °C 1029 hPa ENE 2.4 km/h 5.6 km/h 96 % 0 mm
10:36 17.2 °C 16.4 °C 1029 hPa ENE 0.5 km/h 1.9 km/h 95 % 0 mm
10:41 17.4 °C 16.4 °C 1029.3 hPa ENE 0.2 km/h 5.6 km/h 94 % 0 mm
10:46 17.6 °C 16.4 °C 1029 hPa ENE 1.4 km/h 3.7 km/h 93 % 0 mm
10:51 17.8 °C 16.3 °C 1029 hPa ENE 0.3 km/h 1.9 km/h 91 % 0 mm
10:56 17.9 °C 16.3 °C 1029 hPa Calm     90 % 0 mm
11:01 18.2 °C 16.3 °C 1029 hPa Calm     89 % 0 mm
11:06 18.4 °C 16.2 °C 1029 hPa ENE 0.2 km/h 1.9 km/h 87 % 0 mm
11:11 18.7 °C 15.9 °C 1029 hPa SE 1.4 km/h 5.6 km/h 84 % 0 mm
11:16 19.1 °C 16.1 °C 1028.7 hPa Calm     83 % 0 mm
11:21 19.8 °C 17 °C 1028.7 hPa NNE 2.7 km/h 4.8 km/h 84 % 0 mm
11:26 20.3 °C 16.6 °C 1028.7 hPa North 5.1 km/h 5.6 km/h 79 % 0 mm
11:31 21.1 °C 17.3 °C 1028.7 hPa North 0.8 km/h 1.9 km/h 79 % 0 mm
11:36 21.9 °C 17.1 °C 1028.7 hPa NE 1.1 km/h 3.7 km/h 74 % 0 mm
11:41 22.6 °C 17.1 °C 1028.7 hPa NNE 3.2 km/h 5.6 km/h 71 % 0 mm
11:46 23.1 °C 17.6 °C 1028.7 hPa North 6 km/h 7.4 km/h 71 % 0 mm
11:51 23.6 °C 17.6 °C 1028.7 hPa North 3.5 km/h 5.6 km/h 69 % 0 mm
11:56 24.1 °C 17.3 °C 1028.7 hPa North 5.1 km/h 7.4 km/h 66 % 0 mm
12:01 24.4 °C 17.1 °C 1028.7 hPa ENE 4.3 km/h 5.6 km/h 64 % 0 mm
12:06 24.5 °C 17.2 °C 1028.7 hPa NNE 3.2 km/h 5.6 km/h 64 % 0 mm
12:11 24.7 °C 16.9 °C 1028.7 hPa North 4.7 km/h 7.4 km/h 62 % 0 mm
12:17 24.8 °C 17 °C 1028.7 hPa NNE 6.9 km/h 9.3 km/h 62 % 0 mm
12:22 24.8 °C 17.3 °C 1028.7 hPa NE 3.5 km/h 5.6 km/h 63 % 0 mm
12:27 24.7 °C 17.4 °C 1028.7 hPa NNE 4.2 km/h 9.3 km/h 64 % 0 mm
12:32 24.5 °C 17.2 °C 1028.7 hPa North 5.6 km/h 9.3 km/h 64 % 0 mm
12:37 24.4 °C 17.1 °C 1028.7 hPa ENE 1.9 km/h 5.6 km/h 64 % 0 mm
12:42 24.3 °C 16.3 °C 1028.7 hPa NNE 0.8 km/h 3.7 km/h 61 % 0 mm
12:47 24.2 °C 15.9 °C 1028.7 hPa NE 3.2 km/h 5.6 km/h 60 % 0 mm
12:52 24.1 °C 16.1 °C 1028.3 hPa NNE 3.2 km/h 5.6 km/h 61 % 0 mm
12:57 24.2 °C 16.7 °C 1028.3 hPa NNE 0.8 km/h 1.9 km/h 63 % 0 mm
13:02 24.3 °C 16.6 °C 1028.3 hPa NNE 4.5 km/h 5.6 km/h 62 % 0 mm
13:07 24.4 °C 16.7 °C 1028.3 hPa NE 5.5 km/h 5.6 km/h 62 % 0 mm
13:12 24.5 °C 16.2 °C 1028.3 hPa ENE 2.3 km/h 3.7 km/h 60 % 0 mm
13:17 24.6 °C 17.1 °C 1028.3 hPa North 2.4 km/h 5.6 km/h 63 % 0 mm
13:22 24.6 °C 16.6 °C 1028 hPa NE 3.1 km/h 5.6 km/h 61 % 0 mm
13:27 24.4 °C 17.4 °C 1028 hPa North 1.1 km/h 5.6 km/h 65 % 0 mm
13:32 24.4 °C 16.4 °C 1028.3 hPa Calm   3.7 km/h 61 % 0 mm
13:38 24.4 °C 16.9 °C 1028 hPa NE 1.3 km/h 5.6 km/h 63 % 0 mm
13:43 24.3 °C 16.8 °C 1028 hPa NE 4.7 km/h 6.4 km/h 63 % 0 mm
13:48 24.3 °C 16.8 °C 1027.7 hPa NE 0.2 km/h 1.9 km/h 63 % 0 mm
13:53 24.4 °C 17.2 °C 1027.7 hPa NNE 0.2 km/h 3.7 km/h 64 % 0 mm
13:58 24.3 °C 16.3 °C 1027.7 hPa ESE 1.3 km/h 5.6 km/h 61 % 0 mm
14:03 24.3 °C 16.8 °C 1027.7 hPa SSW 1 km/h 3.7 km/h 63 % 0 mm
14:08 24.2 °C 14 °C 1027.7 hPa SSW 0.3 km/h 1.9 km/h 53 % 0 mm
14:13 24.2 °C 13.1 °C 1027.7 hPa SSW 3.7 km/h 5.6 km/h 50 % 0 mm
14:18 24.2 °C 13.1 °C 1027.7 hPa Calm   1.9 km/h 50 % 0 mm
14:23 24.3 °C 12.6 °C 1027.7 hPa SE 1.6 km/h 8 km/h 48 % 0 mm
14:28 24.4 °C 13.3 °C 1027.7 hPa Calm   1.6 km/h 50 % 0 mm
14:33 24.4 °C 12.4 °C 1027.7 hPa SW 3.7 km/h 5.6 km/h 47 % 0 mm
14:38 24.5 °C 11.1 °C 1027.3 hPa SSW 1.1 km/h 5.6 km/h 43 % 0 mm
14:43 24.5 °C 12.4 °C 1027.3 hPa SSW 0.5 km/h 3.7 km/h 47 % 0 mm
14:54 24.2 °C 11.9 °C 1027.3 hPa SE 2.6 km/h 11.1 km/h 46 % 0 mm
14:59 24.1 °C 12.4 °C 1027.3 hPa SE 0.5 km/h 3.2 km/h 48 % 0 mm
15:04 24.1 °C 12.7 °C 1027.3 hPa Calm   1.9 km/h 49 % 0 mm
15:09 24.1 °C 11.4 °C 1027.3 hPa South 2.3 km/h 5.6 km/h 45 % 0 mm
15:14 24.1 °C 12.1 °C 1027.3 hPa South 0.3 km/h 1.9 km/h 47 % 0 mm
15:19 24.1 °C 11.7 °C 1027.3 hPa SE 2.6 km/h 7.4 km/h 46 % 0 mm
15:24 23.9 °C 10.9 °C 1027.7 hPa SSE 3.2 km/h 5.6 km/h 44 % 0 mm
15:29 23.7 °C 11.7 °C 1027.7 hPa Calm     47 % 0 mm
15:34 23.6 °C 11 °C 1027.7 hPa SW 3.4 km/h 7.4 km/h 45 % 0 mm
15:39 23.4 °C 11.2 °C 1027.7 hPa Calm     46 % 0 mm
15:44 23.3 °C 11.4 °C 1027.7 hPa SE 0.6 km/h 4.8 km/h 47 % 0 mm
15:49 23.2 °C 11.6 °C 1027.7 hPa Calm   1.6 km/h 48 % 0 mm
15:54 23.1 °C 10.5 °C 1027.7 hPa Calm     45 % 0 mm
15:59 22.9 °C 11 °C 1027.7 hPa Calm   1.9 km/h 47 % 0 mm
16:04 22.9 °C 11.3 °C 1027.7 hPa SE 0.2 km/h 1.6 km/h 48 % 0 mm
16:09 22.7 °C 10.8 °C 1027.7 hPa Calm     47 % 0 mm
16:15 22.6 °C 11.1 °C 1027.7 hPa Calm     48 % 0 mm
16:20 22.5 °C 11.2 °C 1027.7 hPa SE 0.3 km/h 1.6 km/h 49 % 0 mm
16:25 22.4 °C 11.2 °C 1027.7 hPa SE 2.4 km/h 4.8 km/h 49 % 0 mm
16:30 22.3 °C 11.9 °C 1027.7 hPa SE 0.2 km/h 1.9 km/h 52 % 0 mm
16:35 22.2 °C 11.6 °C 1027.7 hPa SE 0.2 km/h 1.9 km/h 51 % 0 mm
16:40 22 °C 11.7 °C 1027.7 hPa Calm   3.7 km/h 52 % 0 mm
16:45 21.8 °C 11.6 °C 1027.7 hPa Calm   3.7 km/h 52 % 0 mm
16:50 21.7 °C 11.4 °C 1027.7 hPa SE 0.3 km/h 5.6 km/h 52 % 0 mm
16:55 21.4 °C 12 °C 1027.7 hPa Calm     55 % 0 mm
17:00 21.3 °C 11.7 °C 1027.7 hPa Calm   5.6 km/h 54 % 0 mm
17:05 21.2 °C 12.1 °C 1027.7 hPa SE 0.2 km/h 3.2 km/h 56 % 0 mm
17:10 21.1 °C 11.4 °C 1027.3 hPa SE 0.3 km/h 5.6 km/h 54 % 0 mm
17:15 21 °C 11.6 °C 1027.3 hPa Calm   1.9 km/h 55 % 0 mm
17:20 20.9 °C 11.2 °C 1027.3 hPa Calm   1.6 km/h 54 % 0 mm
17:25 20.7 °C 11.3 °C 1027.3 hPa Calm     55 % 0 mm
17:30 20.7 °C 11.6 °C 1027.3 hPa Calm   1.9 km/h 56 % 0 mm
17:35 20.5 °C 11.7 °C 1027.3 hPa SE 0.3 km/h 3.2 km/h 57 % 0 mm
17:40 20.4 °C 11.8 °C 1027.3 hPa Calm     58 % 0 mm
17:50 20.1 °C 11.6 °C 1027.3 hPa Calm     58 % 0 mm
17:51 20.1 °C 11.6 °C 1027.3 hPa SE 0.2 km/h 1.9 km/h 58 % 0 mm
17:56 19.9 °C 11.7 °C 1027.3 hPa Calm     59 % 0 mm
18:01 19.8 °C 11.8 °C 1027.3 hPa Calm     60 % 0 mm
18:06 19.7 °C 12 °C 1027.3 hPa Calm     61 % 0 mm
18:12 19.6 °C 12.1 °C 1027.3 hPa Calm     62 % 0 mm
18:17 19.4 °C 11.9 °C 1027.3 hPa Calm     62 % 0 mm
18:22 19.2 °C 12 °C 1027.7 hPa Calm     63 % 0 mm
18:27 18.9 °C 12 °C 1027.7 hPa Calm   1.9 km/h 64 % 0 mm
18:32 18.8 °C 12.1 °C 1028 hPa Calm     65 % 0 mm
18:37 18.6 °C 12.1 °C 1027.7 hPa Calm     66 % 0 mm
18:47 18.2 °C 12 °C 1028 hPa Calm     67 % 0 mm
18:52 18.1 °C 12.1 °C 1028 hPa Calm     68 % 0 mm
18:57 17.8 °C 12.1 °C 1028 hPa Calm     69 % 0 mm
19:02 17.7 °C 11.9 °C 1028 hPa Calm     69 % 0 mm
19:07 17.5 °C 11.9 °C 1028 hPa Calm     70 % 0 mm
19:12 17.3 °C 12.2 °C 1028 hPa Calm     72 % 0 mm
19:22 16.8 °C 11.9 °C 1028 hPa Calm     73 % 0 mm
19:27 16.6 °C 11.9 °C 1028 hPa Calm     74 % 0 mm
19:32 16.4 °C 12 °C 1027.7 hPa Calm     75 % 0 mm
19:38 16.3 °C 12.2 °C 1027.7 hPa Calm   1.9 km/h 77 % 0 mm
19:43 16.1 °C 12 °C 1027.7 hPa Calm   1.9 km/h 77 % 0 mm
19:48 15.9 °C 12.1 °C 1028 hPa SE 0.3 km/h 1.9 km/h 78 % 0 mm
19:53 15.8 °C 12.2 °C 1027.7 hPa Calm   1.9 km/h 79 % 0 mm
19:58 15.7 °C 12.2 °C 1028 hPa Calm     80 % 0 mm
20:03 15.5 °C 12.3 °C 1028 hPa Calm     81 % 0 mm
20:08 15.4 °C 12.2 °C 1028 hPa Calm     81 % 0 mm
20:13 15.3 °C 12.1 °C 1028 hPa SE 0.2 km/h 1.9 km/h 81 % 0 mm
20:18 15.2 °C 11.9 °C 1028 hPa Calm   1.9 km/h 81 % 0 mm
20:24 15.1 °C 12 °C 1028 hPa SE 0.2 km/h   82 % 0 mm
20:29 14.9 °C 12.1 °C 1028 hPa Calm     83 % 0 mm
20:34 14.9 °C 12.2 °C 1028 hPa Calm     84 % 0 mm
20:36 14.9 °C 12.4 °C 1028 hPa Calm     85 % 0 mm
20:41 14.8 °C 12.3 °C 1028 hPa Calm     85 % 0 mm
20:46 14.7 °C 12.2 °C 1028 hPa Calm     85 % 0 mm
20:51 14.7 °C 12.2 °C 1028 hPa Calm     85 % 0 mm
20:56 14.6 °C 12.2 °C 1028 hPa SE 1.6 km/h 3.7 km/h 86 % 0 mm
21:01 14.5 °C 12.2 °C 1028 hPa SE 1.3 km/h 3.7 km/h 86 % 0 mm
21:06 14.4 °C 12.1 °C 1028 hPa SE 1 km/h 1.9 km/h 86 % 0 mm
21:11 14.3 °C 11.9 °C 1028 hPa SE 0.2 km/h 1.9 km/h 86 % 0 mm
21:16 14.2 °C 11.9 °C 1028 hPa SE 0.2 km/h 1.9 km/h 86 % 0 mm
21:21 14.2 °C 12.1 °C 1028.3 hPa SE 0.5 km/h 1.9 km/h 87 % 0 mm
21:26 14.1 °C 12 °C 1028 hPa Calm   1.9 km/h 87 % 0 mm
21:31 14.1 °C 12.3 °C 1028 hPa SE 0.2 km/h 1.9 km/h 89 % 0 mm
21:37 14.1 °C 12.3 °C 1028 hPa Calm   1.9 km/h 89 % 0 mm
21:42 14.1 °C 12.4 °C 1028.3 hPa Calm     90 % 0 mm
21:47 14.1 °C 12.4 °C 1028 hPa Calm     90 % 0 mm
21:52 14.1 °C 12.4 °C 1028 hPa Calm     90 % 0 mm
21:57 14.1 °C 12.4 °C 1028 hPa Calm   1.9 km/h 90 % 0 mm
22:02 14.1 °C 12.6 °C 1028 hPa Calm     91 % 0 mm
22:07 14.1 °C 12.6 °C 1028 hPa Calm     91 % 0 mm
22:12 14.1 °C 12.8 °C 1028.3 hPa Calm     92 % 0 mm
22:17 14.1 °C 12.8 °C 1028.3 hPa Calm     92 % 0 mm
22:22 14.1 °C 12.8 °C 1028.3 hPa Calm     92 % 0 mm
22:27 14.1 °C 12.8 °C 1028.3 hPa Calm     92 % 0 mm
22:32 14.1 °C 12.8 °C 1028.3 hPa Calm     92 % 0 mm
22:37 14.1 °C 12.8 °C 1028.3 hPa Calm     92 % 0 mm
22:42 14 °C 12.7 °C 1028.7 hPa Calm     92 % 0 mm
22:47 14 °C 12.7 °C 1028.3 hPa Calm     92 % 0 mm
22:52 13.9 °C 12.7 °C 1028.3 hPa SE 0.2 km/h 1.9 km/h 92 % 0 mm
22:57 13.9 °C 12.4 °C 1028.3 hPa Calm   1.9 km/h 91 % 0 mm
23:03 13.9 °C 12.4 °C 1028.3 hPa Calm     91 % 0 mm
23:08 13.8 °C 12.6 °C 1028 hPa Calm     92 % 0 mm
23:13 13.8 °C 12.6 °C 1028.3 hPa SE 0.3 km/h 1.9 km/h 92 % 0 mm
23:18 13.8 °C 12.5 °C 1028.3 hPa Calm   1.9 km/h 92 % 0 mm
23:24 13.8 °C 12.5 °C 1028.3 hPa SE 0.3 km/h   92 % 0 mm
23:29 13.7 °C 12.4 °C 1028.3 hPa SE 0.2 km/h 1.9 km/h 92 % 0 mm
23:34 13.7 °C 12.4 °C 1028.3 hPa Calm     92 % 0 mm
23:39 13.7 °C 12.4 °C 1028 hPa Calm     92 % 0 mm
23:44 13.7 °C 12.4 °C 1028 hPa Calm     92 % 0 mm
23:48 13.7 °C 12.4 °C 1028.3 hPa Calm   1.9 km/h 92 % 0 mm
23:53 13.7 °C 12.4 °C 1028 hPa Calm     92 % 0 mm
23:58 13.6 °C 12.5 °C 1028 hPa Calm     93 % 0 mm
Crab Meadow Weather
Compliments of Weather Underground - 3 mb

Script developed by  Jim McMurry - jmcmurry@mwt.net Adapted for the template by  Wim van der Kuil - Leuven-Template.eu

Recycling: We use over 80,000,000,000 aluminum soda cans every year.